Regional Weather Roundup
Issued by NWS

Home | Current Version | Previous Version | Text Only | Print | Product List | Glossary Off
Versions: 1 2 3 4 5 6 7 8 9 10 11 12 13 14 15 16 17 18 19 20 21 22 23 24 25 26 27 28 29 30 31 32 33 34 35 36 37 38 39 40 41 42 43 44 45 46 47 48 49 50

000
ASUS43 KMPX 172110
RWRMN
WEATHER ROUNDUP FOR MINNESOTA
NATIONAL WEATHER SERVICE TWIN CITIES/CHANHASSEN MN
400 PM CDT THU APR 17 2014


NOTE: "FAIR" INDICATES FEW OR NO CLOUDS BELOW 12,000 FEET WITH NO
SIGNIFICANT WEATHER AND/OR OBSTRUCTIONS TO VISIBILITY. N/A MEANS
CURRENT SKY AND/OR WEATHER CONDITIONS ARE NOT AVAILABLE.

MNZ060>063-068>070-172200-
   Twin Cities Metro

CITY           SKY/WX    TMP DP  RH WIND       PRES   REMARKS
TWIN CITIES    MOSUNNY   41  26  55 NW5       30.28S
ST PAUL        MOSUNNY   41  27  57 NW9       30.29S
CRYSTAL        MOSUNNY   39  24  55 W8        30.27S
BLAINE         MOSUNNY   39  27  60 N9        30.28R
EDEN PRAIRIE   MOSUNNY   42  27  55 VRB3      30.28R
LAKEVILLE      MOSUNNY   37  27  65 N3        30.28S
SOUTH ST PAUL  PTSUNNY   42  27  55 N3        30.28S
LAKE ELMO      FAIR      41  30  65 NW7       30.28S
$$
MNZ001>005-007-008-013>017-022>024-027-028-172200-
   Northwest Minnesota

CITY           SKY/WX    TMP DP  RH WIND       PRES   REMARKS
BEMIDJI        SUNNY     41   2  20 NW7       30.25F
HALLOCK        CLOUDY    39   7  26 NW3       30.31F
ROSEAU         SUNNY     39   3  22 CALM      30.29F
WARROAD        SUNNY     36   9  32 E8        30.31S
THIEF RVR FALL SUNNY     39   9  28 CALM      30.29F
CROOKSTON      SUNNY     41  16  36 N8        30.30F
FOSSTON        SUNNY     45  14  29 N6        30.27F
DETROIT LAKES  SUNNY     41  12  30 N3        30.27F
MOORHEAD       SUNNY     43   7  22 N1        30.30F
PARK RAPIDS    SUNNY     44   2  17 NW8       30.23F
$$
MNZ006-009>011-018-025>026-172200-
   North Central Minnesota

CITY           SKY/WX    TMP DP  RH WIND       PRES   REMARKS
BAUDETTE       SUNNY     39  12  33 NW14      30.28F
FLAG ISLAND    SUNNY     36   5  27 N7        30.29F
INTL FALLS     CLOUDY    37  17  44 NE9       30.26F
WASKISH        SUNNY     41  18  38 W8        30.26F
BIG FORK       CLOUDY    37  19  48 NE5       30.26S
LONGVILLE      MOSUNNY   43  18  36 W8        30.24S
GRAND RAPIDS   CLOUDY    37  19  48 NW10      30.24S
CRANE LAKE     CLOUDY    34  25  69 N5        30.29R WCI  30
ORR            CLOUDY    34  19  55 NW5       30.24S WCI  30
COOK           CLOUDY    34  23  64 N5        30.26S WCI  30
$$
MNZ012-019>021-037-172200-
   Northeast Minnesota

CITY           SKY/WX    TMP DP  RH WIND       PRES   REMARKS
DULUTH         CLOUDY    36  22  56 NW8       30.22R
ELY            CLOUDY    32  23  69 N5        30.23S WCI  27
HIBBING        CLOUDY    37  21  52 NW12      30.24S
EVELETH        CLOUDY    36  23  60 NW12      30.24S
DULUTH HARBOR  CLOUDY    37  27  65 CALM      30.26S
TWO HARBORS    CLOUDY    36  23  60 N7        30.21R
SILVER BAY     SUNNY     36  27  69 NW5       30.21R
GRAND MARAIS     N/A     33  30  88 E3        30.21S
G MARAIS ARPRT LGT SNOW  30  25  80 NW7       30.17S WCI  23
$$
MNZ029>031-032-039>041-046>048-054>057-064-172200-
   West Central Minnesota

CITY           SKY/WX    TMP DP  RH WIND       PRES   REMARKS
FERGUS FALLS   SUNNY     43  10  26 NW9       30.25F
WHEATON        SUNNY     45  19  36 W3        30.30F
MORRIS         SUNNY     43  19  39 N3        30.29S
ALEXANDRIA     SUNNY     40  15  36 VRB5      30.28S
ELBOW LAKE     FAIR      42  14  32 N6        30.28S
WADENA         SUNNY     43  16  33 NW5       30.24F
GLENWOOD       MOSUNNY   39  18  41 NW5       30.28S
APPLETON       SUNNY     43  19  39 NW5       30.30F
BENSON         SUNNY     39  19  45 NE6       30.30F
ORTONVILLE     SUNNY     39  18  41 W6        30.30F
MADISON        MOSUNNY   43  23  45 N7        30.31F
WILLMAR        FAIR      39  23  52 W7        30.31S
$$
MNZ033>034-036-042>043-049>051-058-059-172200-
   Central Minnesota

CITY           SKY/WX    TMP DP  RH WIND       PRES   REMARKS
ST CLOUD       MOSUNNY   40  21  46 N3        30.27S
SAUK CENTRE    FAIR      39  21  48 CALM      30.28S
PAYNESVILLE    MOSUNNY   37  22  56 W7        30.30S
AITKIN         MOSUNNY   46  19  34 NW6       30.22S
PINE RIVER     SUNNY     43  21  42 N9        30.26F
BRAINERD       SUNNY     47  19  33 NE5       30.25F
STAPLES        SUNNY     43   9  24 NW7       30.24S
LONG PRAIRIE   FAIR      39  19  45 W7        30.27S
LITTLE FALLS   SUNNY     41  19  42 W3        30.26S
LITCHFIELD     MOSUNNY   37  25  60 W8        30.30S
BUFFALO        MOSUNNY   39  23  52 W6        30.30R
MAPLE LAKE     MOSUNNY   40  26  56 W5        30.29S
$$
MNZ037-044-045-052-053-172200-
   East Central Minnesota

CITY           SKY/WX    TMP DP  RH WIND       PRES   REMARKS
PRINCETON      MOSUNNY   41  25  52 W6        30.27F
MORA           SUNNY     41  23  48 NW6       30.27S
CAMBRIDGE      SUNNY     41  27  56 NW9       30.25S
RUSH CITY      SUNNY     38  24  55 N3        30.26F
MOOSE LAKE     PTSUNNY   37  23  56 N8        30.23S
HINCKLEY       MOCLDY    41  25  52 N6        30.25F
CLOQUET        CLOUDY    36  21  55 NW8       30.24R
MCGREGOR       PTSUNNY   41  25  52 NE5       30.24S
$$
MNZ071>073-080-081-089-090-097-098-172200-
   Southwest Minnesota

CITY           SKY/WX    TMP DP  RH WIND       PRES   REMARKS
MONTEVIDEO     SUNNY     43  27  52 N8        30.32S
GRANITE FALLS  SUNNY     36  24  60 NW5       30.33S
CANBY          MOSUNNY   37  18  47 NE5       30.32S
MARSHALL       MOSUNNY   36  19  51 N7        30.32S
REDWOOD FALLS  SUNNY     37  27  67 W12       30.31S
OLIVIA         SUNNY     36  28  75 W9        30.31R
PIPESTONE      MOSUNNY   37  16  41 NE6       30.27F
WINDOM         MOSUNNY   43  30  61 NW9       30.29F
WORTHINGTON    SUNNY     39  25  56 N7        30.30S
JACKSON        PTSUNNY   43  30  61 N7        30.28F
TRACY          MOSUNNY   37  26  65 N7        30.30F
SLAYTON        SUNNY     37  19  48 N7        30.30S
$$
MNZ065>067-074>077-082>085-091>093-172200-
   South Central Minnesota

CITY           SKY/WX    TMP DP  RH WIND       PRES   REMARKS
MANKATO        CLOUDY    37  28  70 NW7       30.31S
NEW ULM        MOSUNNY   39  28  65 N7        30.29F
ST JAMES       MOSUNNY   45  30  57 NW7       30.30F
FAIRMONT       PTSUNNY   39  28  65 N9        30.31F
GLENCOE        SUNNY     40  27  60 NW8       30.29S
FARIBAULT      CLOUDY    39  27  60 W6        30.29S
OWATONNA       CLOUDY    36  28  75 NW7       30.29S
WASECA         CLOUDY    37  32  81 NW6       30.31S
ALBERT LEA     CLOUDY    37  30  75 NW8G16    30.28F
$$
MNZ078>079-086>088-094>096-172200-
   Southeast Minnesota

CITY           SKY/WX    TMP DP  RH WIND       PRES   REMARKS
ROCHESTER      CLOUDY    37  29  72 NW15      30.27S
RED WING       CLOUDY    39  28  65 N5        30.28S
STANTON        CLOUDY    39  28  64 NW6       30.27F
DODGE CENTER   CLOUDY    37  30  75 NW9       30.28R
WINONA         CLOUDY    39  30  70 N8G17     30.28S
AUSTIN         CLOUDY    37  30  75 NW9G18    30.27F
PRESTON        CLOUDY    37  31  78 NW10G16   30.27S
$$
ABBREVIATIONS USED IN REMARKS
   TC - TEMPERATURES IN CELSIUS
  WCI - WIND CHILL INDEX
   HX - HEAT INDEX
  VSB - VISIBILITY
$$


USA.gov is the U.S. government's official web portal to all federal, state and local government web resources and services.